User: anonymous   Login
Location: Dampvalley
(47.9094°N, 6.1967°E)
Time: 03:48:39
(UTC+00:00)
Language:

LO-87 - Orbit

View from above orbital plane
View from above orbital plane
View from above satellite
View from above satellite

Ground track
Ground track

The orbit data is extracted from the following two-line orbital elements,

1 41557U 16033B   21332.89910314  .00003387  00000-0  11702-3 0  9996
2 41557  97.3927  66.0164 0012887  18.6633 117.8064 15.30559634306677
Epoch (UTC): 28 November 2021 21:34:42
Eccentricity: 0.0012887
inclination: 97.3927°
perigee height: 465 km
apogee height: 483 km
right ascension of ascending node: 66.0164°
argument of perigee: 18.6633°
revolutions per day: 15.30559634
mean anomaly at epoch: 117.8064°
orbit number at epoch: 30667

The dashed part of the orbit path shows where the satellite is in the earth's shadow,  

DLR